Location: Unspecified
(0.0000°N, 0.0000°E)
Time: 10:24:52
(UTC+01:00)

SeaSat 1 - Visible Passes

Search period start: 27 February 2017 00:00
Search period end: 09 March 2017 00:00
Orbit: 745 x 747 km, 108.0° (Epoch: 26 February)

Date Brightness Start Highest point End Pass type
(mag) Time Alt. Az. Time Alt. Az. Time Alt. Az.
27 Feb 4.1 19:37:16 10° S 19:41:49 38° WSW 19:46:21 10° NW visible
28 Feb 4.8 06:28:04 10° NE 06:32:12 27° ESE 06:36:21 10° S visible
01 Mar 4.4 19:50:59 10° S 19:55:23 34° WSW 19:59:48 10° NW visible
02 Mar 4.6 06:41:28 10° NE 06:45:47 31° ESE 06:50:07 10° S visible
03 Mar 4.5 20:04:43 10° S 20:08:58 30° WSW 20:13:13 10° NW visible
05 Mar 4.7 20:18:30 10° SSW 20:22:33 26° WSW 20:26:36 10° NW visible
06 Mar 2.4 19:35:46 10° SSE 19:40:42 85° ENE 19:45:37 10° NNW visible
07 Mar 5.9 06:29:49 10° E 06:31:08 11° ESE 06:32:28 10° SE visible
07 Mar 4.9 20:32:17 10° SSW 20:36:07 23° WSW 20:39:57 10° WNW visible
08 Mar 2.5 19:49:21 10° SSE 19:54:17 84° WSW 19:59:12 10° NNW visible
